Weather History for Andalusia, AL

Change the Weather History Date:

Sunday, March 2, 2014

  Actual Average (KCEW) Record (KCEW)
Temperature  
Mean Temperature 63 °F -  
Max Temperature 80 °F 72 °F 84 °F (1992)
Min Temperature 46 °F 49 °F 23 °F (1980)
Degree Days  
Heating Degree Days 2    
Growing Degree Days 13 (Base 50)    
Moisture  
Dew Point 47 °F    
Average Humidity 72    
Maximum Humidity 93    
Minimum Humidity 24    
Precipitation  
Precipitation 0.00 in - - ()
Sea Level Pressure  
Sea Level Pressure 30.13 in    
Wind  
Wind Speed 2 mph (SSW)    
Max Wind Speed 10 mph    
Max Gust Speed -    
Visibility 5 miles    
Events Fog , Rain    
Averages and records for this station are not official NWS values.
T = Trace of Precipitation, MM = Missing Value Source: NWS Daily Summary

Daily Weather History Graph

Daily Weather History Graph

Search for Another Location

Airport:

Trip Planner

Search our weather history database for the weather conditions in past years. The results will help you decide how hot, cold, wet, or windy it might be!

Date:

Astronomy

Mar. 02, 2014 Rise Set
Actual Time 6:11 AM CST 5:44 PM CST
Civil Twilight 5:46 AM CST 6:08 PM CST
Nautical Twilight 5:18 AM CST 6:37 PM CST
Astronomical Twilight 4:50 AM CST 7:05 PM CST
Moon 6:50 AM CST (3/2) 7:30 PM CST (3/2)
Length of Visible Light 12h 22m
Length of Day
11h 33m
Waxing Crescent, 3% of the Moon is Illuminated
Mar 2
Waxing Crescent
Mar 8
First Quarter
Mar 16
Full
Mar 23
Last Quarter
Mar 30
New

Hourly Weather History & Observations

Time (CST) Temp. Windchill Dew Point Humidity Pressure Visibility Wind Dir Wind Speed Gust Speed Precip Events Conditions
12:56 AM 51.1 °F - 48.0 °F 89% 30.18 in 7.0 mi SSE 3.5 mph - N/A   Clear
1:56 AM 52.0 °F - 48.0 °F 86% 30.16 in 5.0 mi Calm Calm - N/A   Clear
2:13 AM 51.8 °F - 48.2 °F 88% 30.16 in 2.5 mi SSE 3.5 mph - N/A   Clear
2:40 AM 51.8 °F - 46.4 °F 82% 30.16 in 1.8 mi Calm Calm - N/A   Clear
2:48 AM 51.8 °F - 48.2 °F 88% 30.17 in 2.0 mi Calm Calm - N/A   Clear
2:52 AM 51.8 °F - 48.2 °F 88% 30.17 in 1.2 mi Calm Calm - N/A   Clear
2:56 AM 52.0 °F - 48.0 °F 86% 30.16 in 1.0 mi Calm Calm - N/A   Clear
3:03 AM 51.8 °F - 48.2 °F 88% 30.17 in 0.5 mi Calm Calm - N/A Fog Fog
3:36 AM 50.0 °F - 46.4 °F 87% 30.17 in 0.2 mi SSE 3.5 mph - 0.00 in Fog , Rain Light Rain
3:56 AM 51.1 °F - 48.0 °F 89% 30.16 in 0.2 mi SSE 3.5 mph - 0.00 in Fog , Rain Light Rain
4:04 AM 51.8 °F - 48.2 °F 88% 30.17 in 0.5 mi SSE 3.5 mph - 0.00 in Fog , Rain Light Rain
4:35 AM 50.0 °F - 46.4 °F 87% 30.17 in 0.2 mi Calm Calm - 0.00 in Fog Fog
4:56 AM 48.9 °F - 46.0 °F 90% 30.17 in 0.2 mi Calm Calm - 0.00 in Fog Fog
5:04 AM 48.2 °F - 46.4 °F 93% 30.18 in 0.5 mi Calm Calm - N/A Fog Fog
5:34 AM 48.2 °F - 44.6 °F 87% 30.18 in 0.2 mi Calm Calm - N/A Fog Fog
5:47 AM 48.2 °F - 44.6 °F 87% 30.18 in 0.5 mi Calm Calm - N/A Fog Fog
5:56 AM 48.0 °F - 45.0 °F 89% 30.18 in 0.8 mi Calm Calm - N/A   Mist
6:03 AM 48.2 °F - 44.6 °F 87% 30.19 in 1.2 mi Calm Calm - N/A   Overcast
6:10 AM 48.2 °F - 44.6 °F 87% 30.19 in 0.8 mi Calm Calm - N/A   Mist
6:20 AM 46.4 °F 44.3 °F 44.6 °F 93% 30.18 in 0.2 mi SE 4.6 mph - N/A Fog Fog
6:56 AM 48.9 °F - 46.0 °F 90% 30.19 in 0.2 mi Calm Calm - N/A Fog Fog
7:03 AM 51.8 °F - 46.4 °F 82% 30.19 in 1.0 mi Calm Calm - N/A   Mist
7:05 AM 51.8 °F - 46.4 °F 82% 30.19 in 1.5 mi Calm Calm - N/A   Mostly Cloudy
7:08 AM 51.8 °F - 48.2 °F 88% 30.19 in 3.0 mi Calm Calm - N/A   Scattered Clouds
7:56 AM 57.9 °F - 51.1 °F 78% 30.20 in 10.0 mi Calm Calm - 0.00 in   Clear
8:56 AM 64.9 °F - 46.9 °F 52% 30.21 in 10.0 mi South 5.8 mph - N/A   Clear
9:56 AM 71.1 °F - 42.1 °F 35% 30.20 in 10.0 mi SSW 8.1 mph - N/A   Clear
10:56 AM 75.0 °F - 39.0 °F 27% 30.19 in 10.0 mi SSW 6.9 mph - N/A   Clear
11:56 AM 78.1 °F - 37.9 °F 24% 30.16 in 10.0 mi Variable 4.6 mph - N/A   Clear
12:56 PM 79.0 °F - 39.9 °F 25% 30.12 in 10.0 mi WSW 6.9 mph - N/A   Clear
1:56 PM 80.1 °F - 42.1 °F 26% 30.09 in 10.0 mi SSW 5.8 mph - N/A   Clear
2:56 PM 80.1 °F - 41.0 °F 25% 30.06 in 10.0 mi West 10.4 mph - N/A   Clear
3:56 PM 79.0 °F - 42.1 °F 27% 30.05 in 10.0 mi WSW 6.9 mph - N/A   Partly Cloudy
4:56 PM 75.9 °F - 43.0 °F 31% 30.04 in 10.0 mi Variable 4.6 mph - N/A   Clear
5:56 PM 71.1 °F - 44.1 °F 38% 30.04 in 10.0 mi SSW 5.8 mph - N/A   Clear
6:56 PM 66.9 °F - 46.0 °F 47% 30.03 in 10.0 mi Variable 5.8 mph - N/A   Clear
7:56 PM 64.0 °F - 50.0 °F 60% 30.01 in 10.0 mi South 3.5 mph - N/A   Clear
8:56 PM 62.1 °F - 53.1 °F 72% 30.02 in 10.0 mi WSW 4.6 mph - N/A   Clear
9:40 PM 60.8 °F - 55.4 °F 82% 30.03 in 10.0 mi SW 3.5 mph - N/A   Scattered Clouds
9:49 PM 60.8 °F - 55.4 °F 82% 30.03 in 10.0 mi Variable 3.5 mph - N/A   Mostly Cloudy
9:56 PM 61.0 °F - 55.9 °F 83% 30.02 in 10.0 mi SW 6.9 mph - N/A   Mostly Cloudy
10:12 PM 60.8 °F - 55.4 °F 82% 30.02 in 10.0 mi SW 4.6 mph - N/A   Scattered Clouds
10:56 PM 60.1 °F - 55.0 °F 83% 29.99 in 9.0 mi Variable 4.6 mph - N/A   Scattered Clouds
11:04 PM 60.8 °F - 55.4 °F 82% 29.99 in 9.0 mi SSW 5.8 mph - N/A   Mostly Cloudy
11:56 PM 61.0 °F - 55.9 °F 83% 29.98 in 10.0 mi Variable 4.6 mph - N/A   Overcast